TimeEST,TemperatureF,Dew PointF,Humidity,Sea Level PressureIn,VisibilityMPH,Wind Direction,Wind SpeedMPH,Gust SpeedMPH,PrecipitationIn,Events,Conditions,WindDirDegrees,DateUTC
12:53 AM,19.0,16.0,88,30.30,10.0,Calm,Calm,-,N/A,,Scattered Clouds,0,2012-12-07 05:53:00
1:53 AM,19.9,16.0,85,30.29,10.0,Calm,Calm,-,N/A,,Mostly Cloudy,0,2012-12-07 06:53:00
2:53 AM,19.9,17.1,89,30.27,10.0,Calm,Calm,-,N/A,,Mostly Cloudy,0,2012-12-07 07:53:00
3:53 AM,18.0,16.0,92,30.27,10.0,Calm,Calm,-,N/A,,Mostly Cloudy,0,2012-12-07 08:53:00
4:53 AM,18.0,15.1,88,30.27,10.0,Calm,Calm,-,N/A,,Scattered Clouds,0,2012-12-07 09:53:00
5:53 AM,19.0,17.1,92,30.27,10.0,Calm,Calm,-,N/A,,Mostly Cloudy,0,2012-12-07 10:53:00
6:53 AM,21.9,19.0,89,30.26,10.0,Calm,Calm,-,N/A,,Overcast,0,2012-12-07 11:53:00
7:53 AM,23.0,19.0,85,30.25,10.0,Calm,Calm,-,N/A,,Overcast,0,2012-12-07 12:53:00
8:53 AM,26.1,21.0,81,30.23,10.0,Calm,Calm,-,N/A,,Overcast,0,2012-12-07 13:53:00
9:53 AM,30.0,23.0,75,30.22,10.0,Calm,Calm,-,N/A,,Overcast,0,2012-12-07 14:53:00
10:53 AM,34.0,26.1,73,30.19,10.0,SSW,6.9,-,N/A,,Mostly Cloudy,210,2012-12-07 15:53:00
11:53 AM,36.0,26.1,67,30.16,10.0,SSW,6.9,-,N/A,,Mostly Cloudy,200,2012-12-07 16:53:00
12:53 PM,37.9,26.1,62,30.14,10.0,SSW,9.2,-,N/A,,Mostly Cloudy,200,2012-12-07 17:53:00
1:01 PM,37.4,26.6,65,30.13,10.0,South,9.2,-,N/A,,Mostly Cloudy,190,2012-12-07 18:01:00
1:53 PM,39.0,28.0,65,30.12,10.0,SSW,10.4,-,N/A,,Mostly Cloudy,200,2012-12-07 18:53:00
2:53 PM,39.0,28.9,67,30.12,10.0,SSW,10.4,20.7,N/A,,Mostly Cloudy,210,2012-12-07 19:53:00
3:53 PM,37.9,28.9,70,30.09,10.0,SSE,6.9,-,N/A,,Mostly Cloudy,160,2012-12-07 20:53:00
4:53 PM,37.0,30.0,76,30.08,10.0,South,5.8,-,N/A,,Mostly Cloudy,180,2012-12-07 21:53:00
5:35 PM,37.4,30.2,75,30.07,10.0,South,5.8,-,N/A,,Mostly Cloudy,190,2012-12-07 22:35:00
5:53 PM,39.0,32.0,76,30.08,10.0,South,6.9,-,N/A,,Mostly Cloudy,190,2012-12-07 22:53:00
6:32 PM,39.2,33.8,81,30.06,10.0,SSW,4.6,-,N/A,,Scattered Clouds,210,2012-12-07 23:32:00
6:53 PM,37.9,32.0,79,30.08,10.0,SSW,3.5,-,N/A,,Mostly Cloudy,210,2012-12-07 23:53:00
7:53 PM,39.2,33.8,81,30.07,10.0,South,4.6,-,N/A,Rain,Light Rain,190,2012-12-08 00:53:00
8:53 PM,37.0,35.1,93,30.07,10.0,South,4.6,-,0.00,,Overcast,190,2012-12-08 01:53:00
9:53 PM,37.0,35.1,93,30.06,10.0,SSW,3.5,-,0.00,Rain,Light Rain,200,2012-12-08 02:53:00
10:28 PM,35.6,35.6,100,30.05,10.0,South,3.5,-,0.00,Rain,Light Rain,190,2012-12-08 03:28:00
10:53 PM,36.0,35.1,97,30.06,10.0,Calm,Calm,-,0.00,Rain,Light Rain,0,2012-12-08 03:53:00
11:53 PM,35.1,34.0,96,30.04,8.0,Calm,Calm,-,0.00,,Overcast,0,2012-12-08 04:53:00